Location: Fisheating Creek Campgrounds
(26.9333°N, 81.3167°W)
Time: 11:32:25
(UTC-04:00)

Cosmos 2221 Rocket - Visible Passes

Search period start: 01 May 2016 00:00
Search period end: 11 May 2016 00:00
Orbit: 620 x 650 km, 82.5° (Epoch: 01 May)

Date Brightness Start Highest point End Pass type
(mag) Time Alt. Az. Time Alt. Az. Time Alt. Az.
02 May 4.3 20:21:40 10° SSW 20:26:05 59° W 20:30:28 10° N visible
03 May 6.2 20:44:46 10° SW 20:48:25 24° W 20:52:04 10° NNW visible
04 May 7.3 21:10:08 10° W 21:10:53 10° WNW 21:11:37 10° WNW visible
06 May 6.9 06:10:28 10° NE 06:12:56 15° ENE 06:15:24 10° ESE visible
07 May 7.0 20:37:21 10° WSW 20:39:31 13° WNW 20:41:42 10° NW visible
09 May 7.1 05:40:07 10° ENE 05:41:34 11° ENE 05:43:02 10° E visible
10 May 6.1 06:00:16 10° NNE 06:04:01 27° E 06:07:48 10° SE visible
